Presure
303 275 254 245 239 232 208 235 229 224 221 216 217 216 222 226 226 231 233 234 237 240 246 254 257 255 247 229 228 226 235 236 210 205 198 201 201 204 195 193 191 192 202
261 241 237 230 229 220 218 219 217 209 209 210 216 218 218 217 220 223 226 227 228 227 226 229 236 241 247 253 251 252 254 233 228 227 219 213 212 209 194 209 207 212 201
241 235 229 224 226 223 215 202 205 213 211 206 204 200 206 207 213 216 217 219 225 229 231 229 227 227 232 236 240 242 251 251 256 249 229 229 228 220 227 217 228 207 215
235 228 226 220 209 201 192 218 206 195 198 194 199 208 207 213 244 228 232 281 254 236 237 238 237 238 232 228 229 228 237 241 239 253 247 243 233 229 229 198 228 226 221
227 223 220 207 196 209 217 199 195 200 194 204 235 252 268 307 324 454 464 465 465 409 450 383 253 252 251 249 240 239 241 228 221 229 243 239 242 237 237 234 228 227 232
222 216 201 203 213 196 192 195 201 202 216 238 254 244 306 453 443 435 429 427 421 420 419 416 421 433 437 430 371 255 253 245 243 245 225 225 221 225 245 221 235 236 239
213 201 203 208 203 193 193 201 196 217 240 249 271 299 445 431 418 409 404 403 403 402 404 408 411 415 410 402 409 417 416 336 254 253 260 246 235 229 228 224 220 220 216
194 200 210 203 199 191 203 205 230 239 259 265 299 444 429 417 405 398 398 399 399 397 398 400 399 391 387 391 401 394 393 403 411 413 260 252 254 257 249 236 231 230 225
184 195 212 201 196 201 208 232 241 250 259 287 428 433 417 406 395 384 451 464 463 462 458 377 386 388 385 388 391 387 389 390 379 382 396 394 279 258 256 258 247 245 240
191 202 201 210 193 202 219 236 238 255 274 307 435 419 402 388 493 461 472 504 516 503 492 474 460 453 449 378 380 389 396 385 384 385 385 372 364 378 387 386 315 282 254
204 202 200 196 195 219 244 246 259 249 277 315 430 406 385 471 461 480 479 496 547 553 537 532 505 462 447 446 444 447 403 377 383 380 376 377 370 361 365 375 382 384 387
203 206 206 195 202 223 236 247 254 259 278 436 423 397 445 457 470 472 511 557 549 547 544 547 528 521 470 439 439 452 446 441 385 374 382 379 370 368 363 358 354 356 362
203 203 205 199 212 227 226 242 249 258 287 432 413 394 466 462 469 454 569 563 552 543 531 528 514 505 508 492 458 436 431 438 438 438 363 370 373 363 360 362 360 358 354
194 201 207 219 218 232 228 245 246 262 289 430 407 391 457 461 469 447 579 554 533 515 498 487 486 489 476 480 483 478 465 416 420 436 380 270 362 368 367 349 346 346 344
198 195 202 214 230 232 233 218 244 262 290 426 404 389 446 455 466 517 560 540 507 485 474 466 462 460 450 448 457 454 453 430 411 421 413 409 194 354 364 368 293 339 333
203 202 201 214 232 230 233 215 245 259 281 416 396 73 432 443 457 458 576 516 488 473 454 448 435 447 446 475 425 429 419 404 400 421 384 286 385 392 356 357 339 162 329
200 206 204 217 228 230 232 224 242 254 277 414 395 382 425 435 451 420 567 511 481 460 444 433 429 418 422 409 466 404 396 385 379 376 375 376 371 135 401 142 300 353 353
194 206 208 224 227 228 232 230 248 252 263 305 397 381 417 424 443 428 585 513 486 460 438 426 416 408 410 394 390 371 375 366 396 357 360 361 380 389 382 360 348 348 349
196 203 210 224 224 232 227 236 247 249 264 309 402 378 412 413 430 444 495 543 493 471 440 429 408 402 395 375 367 365 370 374 371 352 368 359 364 375 382 381 344 342 343
206 204 213 223 221 225 230 234 242 249 264 316 405 386 403 412 417 438 420 588 522 492 451 431 417 405 400 368 358 360 365 379 390 371 356 355 362 371 378 376 346 341 343
198 206 215 221 216 224 234 232 240 249 260 280 332 390 381 409 405 424 424 416 578 516 480 439 425 398 400 374 356 350 352 378 362 356 351 354 359 371 373 374 375 337 339
194 210 216 215 218 228 234 235 240 248 253 266 304 391 379 404 401 405 425 410 424 578 523 466 436 410 400 380 363 349 347 350 355 348 349 352 354 362 362 370 375 347 334
193 212 217 218 228 236 237 236 240 245 253 267 313 396 380 385 400 394 411 429 405 429 585 530 461 443 408 391 374 360 349 345 338 338 339 347 350 359 358 362 370 371 355
195 212 216 227 230 241 239 233 238 246 251 263 285 301 384 375 401 390 400 416 429 410 423 586 537 466 441 405 383 368 359 353 348 333 335 338 350 347 354 359 365 369 375
206 216 223 228 234 243 244 245 239 250 246 264 273 305 392 377 399 388 389 401 414 403 412 430 579 577 475 429 400 382 367 364 355 349 338 344 347 347 349 356 361 372 373
213 224 228 236 239 243 251 248 239 252 248 264 275 310 349 381 373 390 375 389 400 417 385 407 433 563 581 506 438 402 384 376 366 362 353 358 344 346 349 351 360 366 375
Wind_Speed
48 42 40 42 46 49 51 55 56 58 61 64 66 68 71 76 79 82 83 85 86 88 90 92 94 98 103 111 112 112 109 108 105 112 111 112 109 104 96 95 93 96 97
42 44 45 49 52 55 57 59 61 64 68 72 76 79 82 84 87 90 93 94 95 95 94 98 99 101 102 103 106 107 108 111 108 107 114 117 118 114 97 105 105 104 100
47 49 51 55 56 57 59 61 66 71 74 77 80 81 89 91 95 98 99 100 103 103 102 102 101 104 106 107 109 108 108 109 111 112 111 112 115 110 112 109 105 103 105
48 51 54 56 57 59 62 70 69 72 77 79 87 96 97 101 105 108 109 110 112 114 116 115 113 112 109 108 110 109 111 110 108 110 110 112 112 114 112 92 107 107 107
51 53 55 57 58 65 71 71 75 83 85 94 97 104 109 114 116 84 81 81 81 88 83 97 120 123 123 121 119 119 117 107 104 106 111 109 113 116 116 115 109 108 108
53 55 56 62 67 66 70 79 85 90 95 103 108 107 118 77 76 76 78 77 76 76 74 75 77 76 78 85 106 126 126 120 114 114 109 109 105 106 118 105 113 114 113
56 57 63 67 69 71 77 85 89 95 105 108 114 121 75 74 75 77 77 76 75 74 73 72 71 73 75 78 79 81 85 115 125 125 125 118 117 114 111 108 105 105 102
57 63 69 69 73 77 85 91 97 104 110 113 122 75 74 74 75 76 77 76 75 75 74 73 73 72 74 75 75 79 81 79 80 77 127 123 121 123 118 114 114 113 112
60 64 72 73 77 84 90 97 102 107 112 123 85 76 77 76 77 77 77 75 74 73 72 74 74 73 75 76 77 76 76 76 79 79 75 76 129 125 122 119 116 119 118
63 69 73 80 79 88 93 99 102 110 122 126 79 79 81 81 72 75 74 69 67 65 65 65 64 67 68 75 76 75 74 72 74 76 76 73 80 73 75 78 111 121 121
68 72 76 78 82 93 101 104 112 110 126 128 79 81 85 75 73 69 65 63 59 57 56 53 54 59 60 60 64 65 67 70 70 72 72 70 73 73 71 69 69 69 69
70 76 80 80 87 97 100 108 113 120 128 83 80 82 78 73 71 66 62 53 51 51 48 44 42 41 49 54 56 53 52 55 65 68 67 65 66 68 70 70 69 66 64
72 77 81 84 91 100 99 108 113 122 132 83 84 84 74 72 70 66 54 46 40 38 37 31 27 25 27 37 45 46 45 45 47 50 61 61 63 64 63 62 62 62 61
70 76 83 92 95 102 104 114 115 126 132 83 85 86 75 74 72 68 48 35 27 25 22 16 13 11 16 18 19 24 31 41 41 39 42 41 58 57 60 56 56 56 55
73 76 82 89 99 103 108 100 117 128 135 87 89 90 79 76 73 63 44 28 18 13 10 12 10 9 11 13 19 24 27 32 34 34 37 39 37 53 52 51 53 52 51
74 79 82 89 100 100 107 101 119 127 134 86 90 17 81 78 73 67 33 23 13 8 14 11 9 5 5 15 16 22 24 28 31 32 36 37 40 39 49 49 47 51 50
75 81 84 89 98 100 106 101 115 124 132 84 86 88 79 76 70 66 31 20 14 14 13 9 5 8 8 12 21 23 28 29 30 34 35 36 36 27 32 33 42 48 48
74 81 85 92 98 100 105 104 116 118 124 127 82 85 78 75 70 63 31 21 16 16 14 11 9 10 11 17 22 24 25 28 28 33 31 32 30 29 35 44 45 44 45
74 81 86 92 96 103 102 108 116 117 125 127 78 82 74 73 71 64 51 20 18 17 17 14 14 14 16 20 23 25 27 30 36 34 33 33 32 32 32 36 44 45 45
77 81 87 92 94 99 105 106 114 116 125 127 78 79 75 69 67 61 56 28 17 18 21 19 19 19 22 24 25 25 27 32 36 38 37 36 33 30 34 37 45 46 45
74 82 88 92 90 97 106 103 111 114 121 128 113 79 79 70 67 63 55 51 22 16 23 23 21 21 25 27 28 27 27 34 36 37 36 33 30 31 32 36 38 44 44
72 83 88 89 90 99 104 103 108 112 114 121 124 76 78 69 65 64 58 51 47 20 17 27 26 27 29 31 31 30 29 30 34 33 33 31 31 32 33 32 34 41 45
71 83 89 90 97 101 103 103 106 109 113 120 122 71 75 72 64 62 59 53 46 43 19 19 32 32 33 36 37 37 35 35 33 33 32 32 31 31 32 32 32 34 41
72 84 88 93 98 103 102 101 103 107 108 115 120 119 71 72 63 61 58 53 49 43 39 19 22 36 37 39 39 41 42 40 40 37 36 35 35 34 34 34 32 34 36
76 86 90 93 98 102 103 103 99 107 103 113 116 116 66 69 62 61 58 54 51 44 40 35 20 19 39 42 44 44 46 48 45 44 41 40 39 38 36 35 35 34 37
81 87 91 94 97 100 102 101 97 106 102 112 114 114 87 66 66 59 58 55 52 48 38 37 32 20 19 40 48 48 48 51 50 49 46 46 43 40 38 37 35 35 36
Wind_Direction
313 310 308 306 303 301 297 300 302 300 298 296 293 291 287 285 283 280 277 274 272 271 270 268 265 263 262 263 262 263 262 259 258 259 259 259 259 258 255 257 257 257 256
310 308 308 304 304 310 308 306 304 304 302 300 299 296 294 290 287 284 281 278 275 272 269 268 267 266 264 261 259 258 256 259 257 255 256 257 258 259 254 259 259 254 255
308 307 306 308 310 310 309 309 308 307 305 303 299 295 292 290 288 286 284 282 280 277 274 270 267 267 266 264 262 261 258 256 253 253 254 255 257 257 256 256 253 254 253
306 307 309 314 314 312 306 308 308 304 303 301 299 296 294 290 288 282 280 282 274 274 273 272 271 269 267 266 264 263 260 258 257 253 252 251 253 254 255 255 253 252 251
309 311 314 313 313 313 313 312 309 305 304 300 298 301 301 303 300 291 287 284 281 275 275 270 264 264 264 263 263 263 261 259 259 259 255 253 250 251 253 252 252 252 251
310 316 314 314 315 316 315 313 308 305 305 308 308 303 311 301 297 294 291 288 284 281 277 273 271 269 266 264 258 258 258 259 258 255 255 256 254 254 250 254 253 252 251
317 315 316 318 320 318 316 310 308 309 312 312 316 317 307 303 299 296 292 290 287 284 280 277 273 269 265 262 261 259 259 252 255 257 255 253 252 252 253 254 254 255 255
313 319 317 320 319 318 313 311 317 317 320 321 322 313 310 306 302 298 295 291 288 284 280 275 271 267 265 262 258 256 256 256 258 255 254 255 254 251 250 250 252 253 253
312 319 318 321 319 317 315 319 321 322 325 328 322 317 314 311 306 302 299 294 289 284 280 274 270 265 261 259 257 255 253 252 253 253 252 247 251 254 253 251 250 251 252
316 320 322 318 320 318 319 322 322 328 331 332 324 321 319 316 313 308 303 299 294 287 282 277 272 268 264 260 258 255 252 252 249 248 249 245 245 244 245 246 249 251 252
318 322 321 320 321 322 326 328 334 330 334 335 328 326 325 321 319 316 312 306 299 292 286 279 271 266 265 261 258 256 253 249 247 246 245 244 244 245 244 243 243 244 243
321 320 320 321 321 326 329 333 336 336 337 331 331 331 328 327 326 324 319 311 301 295 291 287 281 272 260 259 257 254 251 248 246 244 243 242 240 241 242 242 242 241 240
323 320 322 322 325 329 330 335 337 338 340 334 334 335 334 334 334 329 326 318 309 301 300 302 293 282 269 259 255 252 248 243 241 240 240 239 238 238 240 240 240 239 238
324 322 323 326 329 333 334 337 338 340 342 336 337 337 339 341 339 335 333 327 317 313 314 307 295 272 266 264 252 241 237 237 236 235 233 241 235 235 236 236 235 235 234
321 323 324 328 333 336 336 334 340 342 344 339 340 340 342 344 343 342 338 336 331 317 294 286 284 260 253 246 211 209 212 222 223 219 217 220 248 231 232 232 236 231 230
323 324 325 330 336 337 339 336 342 344 345 340 341 297 345 346 346 344 344 331 320 281 284 295 292 284 236 215 218 212 209 211 213 204 214 235 223 228 226 226 227 246 226
323 325 327 332 337 338 339 340 343 346 347 341 342 344 345 348 349 346 345 325 299 279 280 282 249 240 204 209 209 199 199 203 205 205 211 219 221 239 218 251 228 221 223
324 326 328 334 338 338 340 341 344 347 348 350 344 346 347 348 350 351 352 325 292 265 270 260 236 232 217 197 190 196 199 203 197 211 212 218 224 217 215 215 217 217 218
325 327 329 335 338 339 340 343 345 347 349 351 347 348 349 350 351 353 354 337 296 260 267 245 231 221 205 204 204 203 198 196 199 208 202 208 212 209 208 212 212 213 214
326 327 330 335 338 340 340 343 345 347 349 352 346 349 351 352 352 354 354 351 314 266 252 256 233 222 199 204 208 208 207 203 193 195 206 210 210 209 209 208 209 209 209
325 328 330 334 337 340 339 343 344 347 350 352 352 348 351 352 353 354 356 355 343 292 247 248 235 227 211 214 213 213 208 199 201 204 209 210 210 211 210 212 212 207 205
325 328 330 333 336 338 338 342 344 347 349 352 353 348 350 352 353 353 355 355 357 334 274 241 240 224 213 212 218 220 217 211 211 212 214 210 209 211 209 213 216 207 201
325 328 330 332 334 336 338 341 343 346 349 352 354 347 349 351 352 353 353 356 355 356 328 262 240 232 219 212 215 219 222 219 216 213 211 215 213 212 211 212 214 213 203
324 326 328 331 333 335 337 339 342 345 348 351 353 353 348 350 351 353 353 356 357 355 354 323 259 239 228 219 216 217 222 224 220 223 220 215 216 212 214 212 213 211 209
324 325 328 331 332 335 336 338 342 344 347 350 352 353 348 349 350 352 354 355 356 353 354 352 326 273 235 226 221 219 220 221 226 222 225 222 218 216 214 213 210 215 207
323 325 328 331 332 335 337 338 340 343 347 348 351 353 351 348 349 350 353 354 354 355 350 351 350 331 275 236 227 223 222 222 224 227 225 223 223 219 215 211 210 210 208